Regional Weather Roundup
Issued by NWS Charleston, SC

Current Version | Previous Version | Graphics & Text | Print | Product List | Glossary On
Versions: 1 2 3 4 5 6 7 8 9 10 11 12 13 14 15 16 17 18 19 20 21 22 23 24 25 26 27 28 29 30 31 32 33 34 35 36 37 38 39 40 41 42 43 44 45 46 47 48 49 50
000
ASUS42 KCHS 200627
RWRCHS

Regional Weather Roundup
National Weather Service Charleston SC
200 AM EDT FRI APR 20 2018

NOTE: "fair" indicates few or no clouds below 12,000 feet with no
significant weather and/or obstructions to visibility.

Not all stations are quality controlled. Use data with caution,
especially dewpoint observations.

SCZ027-030-031-034>040-042>050-200700-
...Southeast South Carolina...

CITY           SKY/WX    TMP DP  RH WIND       PRES   REMARKS
N Charleston   FAIR      56  35  45 N13G21    30.15R
6HR MIN TEMP:  56; 6HR MAX TEMP:  78;

Waterfront Prk   N/A     60  42  51 N18       29.99R
Mount Pleasant FAIR      55  36  47 N7        30.15S
Johns Island   FAIR      57  36  44 N15       30.14S
Pinopolis        N/A     57  39  51 N21       30.06R
Moncks Corner  FAIR      54  32  43 N14G22    30.18R
Summerville    FAIR      54  32  43 N10G17    30.18R
Beaufort MCAS  FAIR      59  37  44 N20G26    30.14R
6HR MIN TEMP:  59; 6HR MAX TEMP:  77;

Beaufort Arpt  FAIR      59  37  44 N18       30.14R
Hilton Head Is FAIR      61  39  44 NE13G25   30.13R
Walterboro     FAIR      54  32  43 N9        30.18R
Allendale      FAIR      55  32  41 NE7       30.17R

...Southern Midlands and Pee Dee...

CITY           SKY/WX    TMP DP  RH WIND       PRES   REMARKS
Georgetown     FAIR      52  30  43 N12       30.19R
Kingstree      FAIR      50  27  40 N9G18     30.22R
Orangeburg     FAIR      52  30  43 NE10      30.21R
6HR MIN TEMP:  52; 6HR MAX TEMP:  72;

Barnwell       MOCLDY    54  30  40 NE16      30.19R
Aiken          FAIR      50  32  50 NE12      30.23R
Manning        FAIR      46  28  49 N8G18     30.21R
Columbia       FAIR      53  30  41 NE10G21   30.23R
6HR MIN TEMP:  53; 6HR MAX TEMP:  70;

Sumter         FAIR      49  28  44 N13       30.21R
6HR MIN TEMP:  49; 6HR MAX TEMP:  68;

Florence       FAIR      49  31  49 N9        30.23R
6HR MIN TEMP:  49; 6HR MAX TEMP:  67;

Myrtle Beach   FAIR      52  31  44 N17G26    30.20R
N Myrtle Beach FAIR      52  30  43 N10G28    30.18R
6HR MIN TEMP:  52; 6HR MAX TEMP:  73;


$$

GAZ063-065-086>088-099>101-113>116-118-119-134>141-150-200700-
...Southeast Georgia...

CITY           SKY/WX    TMP DP  RH WIND       PRES   REMARKS
Savannah Arpt  FAIR      61  41  47 NE13      30.12R
6HR MIN TEMP:  60; 6HR MAX TEMP:  78;

Hunter AAF     FAIR      63  41  45 N10       30.08R
6HR MIN TEMP:  63; 6HR MAX TEMP:  76;

Fort Stewart   FAIR      61  41  49 N8        30.09R
6HR MIN TEMP:  60; 6HR MAX TEMP:  77;

Statesboro     FAIR      58  33  38 NE6       30.15R
Sylvania       FAIR      57  37  47 NE8G20    30.16R
Claxton        FAIR      60  42  52 NW3       30.13S

...CSRA, Central and far Southeast Georgia...

CITY           SKY/WX    TMP DP  RH WIND       PRES   REMARKS
Thomson        FAIR      52  34  49 SE9       30.24R
Augusta-Bush   FAIR      53  33  46 NE8       30.19R
6HR MIN TEMP:  53; 6HR MAX TEMP:  69;

Augusta-Daniel FAIR      56  31  38 NE13G21   30.19R
Swainsboro     FAIR      55  39  54 NE6       30.16S
Vidalia        FAIR      55  41  58 N8        30.14S
Eastman        FAIR      53  28  38 CALM      30.18S
Hazlehurst     FAIR      58  36  44 N7        30.13S
Alma           FAIR      59  41  51 N7        30.12R
6HR MIN TEMP:  59; 6HR MAX TEMP:  78;

Waycross       FAIR      58  43  56 N5        30.12S
Jesup          MOCLDY    64  39  39 N6        30.11R
Baxley         FAIR      57  37  47 N8        30.12S
Brunswick      CLOUDY    64  41  42 N8        30.11R
Saint Simons   CLOUDY    67  47  48 N6        30.09R
6HR MIN TEMP:  67; 6HR MAX TEMP:  80;


$$

SCZ027-028-034-036>038-045-046-048>050-GAZ119-141-200700-
...Lake and Supplemental Coastal Observations...

STATION/POSITION TIME  TEMP    WIND        PRES    WAVE   SWELL
                       AIR SEA DIR/SP/G            HT/PER HT/PER/DIR
                 (UTC) (F)     (DEG/KT/KT) (MB)    (FT/S) (FT/S/D)
Winyah Bay       0545   55      10/ 10     1021.0S
Lake Murray      0520   53      40/  6/  8 1022.7
ACE Basin NERRS  0545   59     350/  5       N/A
Fort Pulaski     0600           50/ 13/ 19   N/A
Sapelo Island    0600   65     360/ 12     1019.0

$$

ANZ835-935-AMZ111-154-330-350-352-354-370-450-454-472-200700-
...C-MAN and Buoy Observations...

STATION/POSITION TIME  TEMP    WIND        PRES    WAVE   SWELL
                       AIR SEA DIR/SP/G            HT/PER HT/PER/DIR
                 (UTC) (F)     (DEG/KT/KT) (MB)    (FT/S) (FT/S/D)
Buoy 41004       0610   62 67   20/ 25/ 31 1019.5
Buoy 41008       0550   67 66   10/ 17/ 23 1017.8R   2/ 3
Folly Beach CMAN 0600   60      10/ 17/ 19 1021.0R
Capers Nearshore 0608   60 63   30/ 19/ 25 1020.6R
Fripp Nearshore  0608   62 64   30/ 16/ 25 1019.1R


STATION/POSITION TIME  TEMP    WIND        PRES    WAVE   SWELL
                       AIR SEA DIR/SP/G            HT/PER HT/PER/DIR
                 (UTC) (F)     (DEG/KT/KT) (MB)    (FT/S) (FT/S/D)
5E St. Marys GA  0600      66                N/A     2/ 8
Frying Pan Buoy  0610   57 65   10/ 25/ 31 1020.3
Buoy 41025       0610   53 67  360/ 27/ 33 1021.2
Cape Lookout NC  0600          350/ 16/ 19 1021.3R
Buoy 41002       0610   72 71  240/ 14/ 17 1015.6
Buoy 41010       0610   74 74  190/ 14/ 16 1018.3
St Augustine FL  0600   68 67  260/  7/  9 1018.1F


$$



USA.gov is the U.S. government's official web portal to all federal, state and local government web resources and services.